This demonstration page uses our WeatherBlox Daily Observations layout. Learn more.

Left ArrowRight Arrow

38.20091, -84.87328

Hourly Observations for January 7, 2020

Temp ( °F °C ) Dew Point ( °F °C ) Humidity (%) Winds ( mph kmh ) Pressure ( in mb ) Visibility ( mi km ) Precip ( " mm )
12:53 am 00:53 Cloudy with Haze 34 1.1 25 -3.9 70 70 N 3 6 30.04 1017 4 6 0.00 0.00
1:53 am 01:53 Cloudy 36 2.2 23 -5 59 59 NE 5 7 30.01 1016 10 16 0.00 0.00
2:53 am 02:53 Cloudy 37 2.8 24 -4.4 59 59 E 9 15 29.98 1015 10 16 0.00 0.00
3:53 am 03:53 Cloudy 37 2.8 25 -3.9 62 62 ESE 3 6 29.95 1014 7 11 0.00 0.00
4:53 am 04:53 Cloudy 38 3.3 26 -3.3 62 62 ESE 6 9 29.93 1014 10 16 0.00 0.00
5:53 am 05:53 Cloudy 38 3.3 26 -3.3 62 62 NNW 6 9 29.96 1015 10 16 0.00 0.00
6:53 am 06:53 Cloudy 36 2.2 25 -3.9 64 64 Calm 29.98 1015 10 16 0.00 0.00
7:53 am 07:53 Clear 33 0.6 25 -3.9 72 72 Calm 29.99 1016 10 16 0.00 0.00
8:53 am 08:53 Mostly Sunny 33 0.6 26 -3.3 75 75 Calm 30.02 1017 10 16 0.00 0.00
9:53 am 09:53 Sunny 40 4.4 28 -2.2 63 63 S 7 11 30.03 1017 10 16 0.00 0.00
10:53 am 10:53 Mostly Sunny 43 6.1 28 -2.2 56 56 SW 8 13 30.05 1018 10 16 0.00 0.00
11:53 am 11:53 Sunny 46 7.8 25 -3.9 44 44 WSW 9 15 30.04 1017 10 16 0.00 0.00
12:53 pm 12:53 Sunny 47 8.3 22 -5.6 37 37 WNW 12 19 30.03 1017 10 16 0.00 0.00
1:53 pm 13:53 Sunny 49 9.4 20 -6.7 32 32 WSW 9 15 30.01 1016 10 16 0.00 0.00
2:53 pm 14:53 Sunny 50 10 18 -7.8 28 28 WSW 10 17 30.01 1016 10 16 0.00 0.00
3:53 pm 15:53 Sunny 50 10 19 -7.2 29 29 W 14 22 30.04 1017 10 16 0.00 0.00
4:53 pm 16:53 Mostly Sunny 48 8.9 20 -6.7 33 33 W 12 19 30.09 1019 10 16 0.00 0.00
5:53 pm 17:53 Clear 45 7.2 23 -5 42 42 W 6 9 30.11 1020 10 16 0.00 0.00
6:53 pm 18:53 Clear 43 6.1 23 -5 45 45 W 7 11 30.14 1021 10 16 0.00 0.00
7:53 pm 19:53 Clear 42 5.6 25 -3.9 51 51 W 9 15 30.16 1021 10 16 0.00 0.00
8:53 pm 20:53 Clear 39 3.9 25 -3.9 57 57 WSW 6 9 30.18 1022 10 16 0.00 0.00
9:53 pm 21:53 Clear 35 1.7 26 -3.3 70 70 SW 9 15 30.16 1021 10 16 0.00 0.00
10:53 pm 22:53 Clear 38 3.3 27 -2.8 65 65 SW 9 15 30.16 1022 10 16 0.00 0.00
11:53 pm 23:53 Mostly Cloudy 37 2.8 27 -2.8 67 67 SW 12 19 30.16 1021 10 16 0.00 0.00

Powered by AerisWeather